Location: Baja Trade Winds
(32.4150°N, 117.0948°W)
Time: 07:44:31
(UTC+00:00)

Daily predictions for brighter satellites

Satellite Brightness Start Highest point End
(mag) Time Altitude Azimuth Time Altitude Azimuth Time Altitude Azimuth
Cosmos 405 2.8 12:03:24 10° SSW 12:06:47 73° W 12:10:11 10° N
Meteor 1-5 Rocket 4.2 12:01:57 10° SSW 12:07:16 63° W 12:12:32 10° N
DELTA 2 DEB (DPAF) 4.2 12:04:09 10° S 12:08:28 58° W 12:12:49 10° NNW
Sakura Rocket 3.5 12:08:00 10° WSW 12:11:16 30° SSW 12:14:31 10° SE
Meteor 1-29 3.8 12:09:22 10° N 12:12:23 32° WNW 12:15:23 10° SW
YAOGAN 6 2.7 12:09:45 10° NNE 12:13:21 81° E 12:16:53 10° S
Cosmos 1125 Rocket 3.5 12:09:44 10° NNW 12:15:03 78° WSW 12:20:20 10° S
CZ-2C R/B 3.7 12:15:04 10° NNW 12:18:26 21° WNW 12:21:46 10° WSW
Cosmos 1536 4.2 12:15:06 10° SSE 12:18:52 41° E 12:22:42 10° NNE
Cosmos 1544 4.1 12:16:26 10° SW 12:19:24 26° W 12:22:25 10° NNW
CZ-3C R/B 4.1 12:14:52 10° WSW 12:20:59 43° SSE 20:03:45 10° SE
ATLAS CENTAUR R/B 2.2 12:16:37 10° SSW 12:21:03 58° ESE 12:25:47 10° NE
